Location: Houston
(29.7630°N, 95.3630°W)
Time: 15:54:48
(UTC-06:00)

ISS - All Passes

Search period start: 25 November 2014 00:00
Search period end: 05 December 2014 00:00
Orbit: 407 x 417 km, 51.6° (Epoch: 25 November)

Date Brightness Start Highest point End Pass type
(mag) Time Alt. Az. Time Alt. Az. Time Alt. Az.
25 Nov - 07:26:37 10° NW 07:29:55 78° NE 07:33:13 10° SE daylight
25 Nov - 22:27:27 10° SSW 22:30:34 43° SE 22:33:42 10° ENE night (unlit)
26 Nov - 00:05:34 10° WNW 00:07:21 14° NW 00:09:09 10° N night (unlit)
26 Nov - 06:37:01 10° NNW 06:40:06 35° NE 06:43:09 10° ESE daylight
26 Nov - 08:14:50 10° W 08:16:27 13° SW 08:18:04 10° SSW daylight
26 Nov - 21:38:21 10° S 21:40:49 20° SE 21:43:18 10° ENE night (unlit)
26 Nov - 23:14:36 10° W 23:17:20 24° NW 23:20:04 10° NNE night (unlit)
27 Nov - 05:47:38 10° N 05:50:05 19° NE 05:52:32 10° E visible
27 Nov - 07:23:52 10° WNW 07:26:42 27° SW 07:29:31 10° S daylight
27 Nov - 22:24:06 10° WSW 22:27:17 47° NW 22:30:28 10° NNE night (unlit)
28 Nov - 04:58:49 10° NNE 04:59:53 11° NE 05:00:58 10° NE visible
28 Nov - 06:33:32 10° NW 06:36:47 61° SW 06:40:01 10° SSE daylight
28 Nov - 21:33:57 10° SW 21:37:13 75° SE 21:40:29 10° NE night (unlit)
29 Nov - 05:43:27 10° NW 05:46:42 57° NE 05:49:56 10° SE visible
29 Nov - 20:44:10 10° SSW 20:47:07 32° SE 20:50:05 10° ENE night (unlit)
29 Nov - 22:21:33 10° W 22:23:46 17° NW 22:26:00 10° N night (unlit)
30 Nov - 04:53:33 10° NNW 04:56:26 28° NE 04:59:19 10° ESE visible
30 Nov - 06:30:38 10° W 06:32:52 17° SW 06:35:05 10° S visible
30 Nov - 19:55:00 10° SSE 19:56:59 15° SE 19:58:59 10° E night (unlit)
30 Nov - 21:30:25 10° WSW 21:33:22 30° NW 21:36:20 10° NNE night (unlit)
01 Dec - 04:03:56 10° N 04:06:00 16° NE 04:08:03 10° ENE visible
01 Dec - 05:39:38 10° WNW 05:42:41 36° SW 05:45:43 10° SSE visible
01 Dec - 20:39:42 10° SW 20:42:57 66° NW 20:46:13 10° NE night (unlit)
02 Dec - 04:49:03 10° NW 04:52:20 86° SW 04:55:37 10° SE visible
02 Dec - 19:49:19 10° SSW 19:52:30 52° SE 19:55:43 10° NE visible
02 Dec - 21:27:52 10° WNW 21:29:19 12° NW 21:30:45 10° N night (unlit)
03 Dec - 03:58:41 10° NNW 04:01:49 41° NE 04:04:57 10° ESE visible
03 Dec - 05:37:08 10° WSW 05:38:04 11° SW 05:39:01 10° SW visible
03 Dec - 18:59:22 10° S 19:02:02 23° SE 19:04:42 10° ENE visible
03 Dec - 20:35:57 10° W 20:38:33 21° NW 20:41:09 10° NNE night (unlit)
04 Dec - 03:08:31 10° NNW 03:11:07 21° NE 03:13:42 10° E night (unlit)
04 Dec - 04:44:57 10° WNW 04:47:38 23° SW 04:50:18 10° S visible
04 Dec - 18:10:38 10° SE 18:11:32 11° SE 18:12:26 10° ESE visible
04 Dec - 19:44:39 10° WSW 19:47:46 41° NW 19:50:55 10° NNE visible
